Theta_e
319 319 324 326 329 330 330 330 328 326 319 323 326 325 326 327 328 328 328 328 327 325 320 324 310 306 307 307 318 318 318 318
319 323 327 329 330 330 330 329 328 326 320 325 323 324 326 327 328 327 328 328 327 327 322 322 307 308 311 309 317 315 315 318
326 329 329 329 329 330 329 329 328 326 320 322 322 323 324 324 326 326 327 328 327 327 323 322 310 316 314 316 312 316 317 318
329 330 329 329 330 329 329 328 327 324 319 322 322 324 322 322 322 322 324 327 327 327 325 323 316 320 317 318 318 317 317 317
326 330 330 329 330 329 329 328 327 323 319 322 321 321 322 321 321 322 324 324 326 326 326 322 318 319 318 318 316 316 315 313
325 330 329 330 329 329 329 328 327 320 319 322 321 320 321 321 321 320 323 324 325 326 325 321 317 319 319 317 316 316 313 313
324 328 330 330 329 329 328 327 326 319 320 323 320 319 320 320 319 319 319 320 319 320 323 317 319 315 318 317 316 314 314 314
326 328 329 329 329 329 328 327 324 319 321 322 320 320 320 320 319 319 319 319 320 320 321 320 318 317 315 316 316 314 315 315
327 328 329 329 329 329 328 326 322 318 320 321 320 320 320 320 319 320 321 321 321 321 320 320 319 315 317 315 315 316 315 313
328 328 329 329 329 329 329 326 322 318 320 321 321 321 320 321 320 320 320 320 320 320 318 317 316 316 316 314 314 316 314 314
329 329 329 329 329 330 328 326 323 319 319 321 320 320 319 320 318 318 317 317 317 317 317 317 316 316 316 315 315 316 315 315
329 329 329 329 330 330 329 327 326 322 318 321 321 320 319 317 317 317 316 315 315 315 315 315 315 314 314 313 314 315 315 317
330 329 329 329 330 330 329 328 327 325 318 319 320 320 319 318 318 318 317 315 313 315 314 314 315 317 315 314 315 315 316 317
322 330 330 330 330 330 329 329 327 326 320 318 320 320 320 319 319 319 318 317 313 312 312 313 313 316 316 316 316 317 317 318
325 330 330 330 330 330 330 330 329 327 324 318 321 320 320 319 320 320 319 319 318 315 313 311 313 313 313 313 312 313 316 317
320 330 330 330 330 330 330 330 330 328 326 321 318 322 320 320 320 319 319 319 319 319 317 314 311 312 313 312 312 313 314 314
322 329 330 330 330 330 330 330 330 329 328 325 321 318 323 321 320 320 319 320 320 320 320 319 316 314 313 312 313 314 315 317
321 320 323 328 329 329 329 329 328 328 328 327 325 320 319 320 321 320 320 319 320 321 321 321 320 319 319 318 315 314 314 315
318 319 320 320 322 326 328 329 328 329 328 327 326 325 322 321 320 321 321 321 320 320 321 322 322 322 321 321 320 318 316 315
Wind_Speed
36 33 36 32 29 27 23 20 17 15 15 17 20 23 26 25 28 31 31 32 33 40 42 41 42 41 41 47 46 40 38 30
32 38 38 34 31 30 27 22 18 16 16 22 22 23 26 26 26 29 33 35 36 39 45 45 47 46 44 45 47 38 32 34
35 43 40 37 34 32 27 22 18 15 15 18 20 23 25 28 30 28 29 39 45 46 50 49 52 48 45 43 46 39 34 36
41 46 43 40 37 33 28 23 19 16 16 17 20 20 20 21 23 29 37 34 41 47 51 54 55 49 46 43 42 39 37 33
45 50 47 43 39 33 27 23 20 18 18 20 21 21 22 22 22 24 29 34 38 47 53 55 57 48 46 43 40 40 37 36
43 54 50 45 39 34 29 24 21 18 19 19 19 19 21 19 23 24 29 37 43 47 51 60 58 50 43 41 41 37 36 33
39 53 52 46 39 33 30 26 21 18 18 20 20 22 22 23 27 29 28 36 42 50 57 61 57 49 46 39 38 40 36 32
38 48 53 47 41 36 32 28 23 20 21 23 23 23 24 25 29 30 30 35 37 43 44 47 49 46 46 40 40 35 34 32
44 53 56 49 42 37 33 30 25 22 22 21 21 25 25 29 32 34 35 32 31 37 42 40 43 46 44 45 38 35 31 27
47 49 53 49 43 38 34 30 26 24 24 24 24 26 30 34 33 32 32 34 37 40 39 42 47 49 46 45 39 35 29 31
38 48 50 47 42 37 34 29 26 24 25 28 26 28 32 36 33 29 30 30 35 39 40 38 35 41 43 46 47 36 31 33
34 46 47 46 44 39 34 32 29 26 27 31 30 30 33 38 32 30 29 30 35 39 38 37 37 38 38 41 45 37 35 38
26 34 41 44 43 39 36 34 32 27 28 31 33 33 36 37 36 33 32 33 36 38 39 38 38 37 39 40 42 40 38 36
15 33 39 42 42 39 37 34 32 29 27 31 35 36 37 39 39 36 35 35 38 41 41 43 44 43 40 39 39 39 37 36
10 30 37 42 42 41 37 34 32 30 27 30 37 38 38 38 36 37 38 39 41 42 42 42 49 47 48 47 44 44 43 42
14 23 30 33 36 37 36 34 32 31 29 30 36 38 38 38 38 37 38 41 42 40 41 45 46 51 52 50 49 48 48 46
16 14 17 22 30 34 35 34 33 31 31 32 30 35 39 40 39 39 38 40 42 42 41 42 47 49 50 52 50 51 48 45
24 27 20 10 12 16 25 29 30 32 33 31 31 33 36 38 41 40 41 42 40 43 42 42 44 45 46 46 49 51 52 51
20 19 18 16 13 9 16 24 23 30 34 34 32 31 35 37 37 40 42 40 41 41 42 42 41 40 41 42 44 47 51 55
Wind_Direction
227 212 203 208 206 210 214 226 236 242 215 210 210 217 216 216 217 214 208 204 204 196 190 186 182 178 172 173 171 173 174 172
213 196 197 199 203 210 212 220 229 235 216 206 213 214 210 213 217 214 210 209 206 203 190 187 181 178 175 175 178 178 176 175
192 186 194 203 206 207 210 214 226 235 221 213 220 214 215 214 215 213 217 215 205 202 194 187 181 176 177 174 178 174 175 178
189 187 196 202 203 207 211 216 222 220 211 205 207 207 211 213 215 215 215 212 213 204 196 191 184 179 178 179 179 174 170 173
201 192 196 201 202 203 209 214 219 218 208 204 204 204 203 210 209 214 213 210 212 208 203 187 183 179 179 182 179 178 169 174
202 200 202 201 202 203 207 210 218 216 203 204 206 208 211 204 213 216 214 210 208 215 215 187 184 182 177 182 181 177 177 184
214 203 198 198 197 200 205 208 213 208 194 200 206 207 202 200 200 195 190 185 180 182 189 180 184 180 180 183 184 186 195 197
199 192 196 196 194 198 204 206 208 201 191 201 210 210 207 201 194 191 176 189 177 172 171 174 179 178 181 185 192 193 197 205
195 199 197 197 196 199 203 203 207 198 191 198 210 211 204 199 189 189 186 180 177 174 179 187 188 189 186 185 196 199 209 221
191 190 196 196 198 202 206 203 207 200 191 197 204 214 203 197 191 197 202 200 199 196 194 193 191 195 199 191 202 210 221 223
179 188 196 199 202 201 204 207 210 205 195 199 202 211 208 201 202 207 208 205 203 198 196 198 204 203 205 205 207 223 229 225
184 192 199 200 202 202 202 205 206 206 200 199 205 206 212 208 212 215 217 212 201 200 202 201 202 204 208 215 218 227 229 232
213 196 196 202 203 204 204 205 208 211 209 202 207 211 210 214 218 220 220 221 209 202 202 206 207 210 211 215 223 229 230 232
285 207 204 206 206 205 205 206 210 211 214 209 209 212 215 217 220 221 222 220 219 214 215 218 212 211 215 219 225 232 235 238
331 198 203 208 208 207 207 209 215 215 215 214 210 213 217 221 223 222 221 223 227 228 227 223 219 220 222 225 232 237 238 241
311 208 199 206 208 210 212 214 217 218 217 218 217 214 218 222 224 225 225 224 227 232 230 229 228 229 230 232 237 239 241 245
52 208 200 210 214 217 218 219 220 221 223 224 223 218 215 221 225 225 226 228 227 230 232 231 231 232 234 237 240 241 244 247
51 61 85 147 199 226 236 234 232 230 231 230 229 226 224 221 223 226 227 228 230 232 234 237 237 239 240 242 243 245 248 250
53 52 68 70 90 162 216 238 248 242 240 239 235 232 231 229 226 225 227 229 229 232 235 237 240 243 243 244 245 245 247 250